TITAN 3C TRANSTAGE DEB, 1682

Orbit data source: Space-Track

TITAN 3C TRANSTAGE DEB, 1682 is space debris in LEO originally from a launch on Fri, 15 Oct 1965 UTC launched from the Air Force Eastern Test Range (AFETR). Debris objects in space refer to the collection of defunct objects orbiting the Earth. Examples of debris include non-operational satellites, rocket bodies, and fragments generated from explosions, collisions, or faulty payload assembly.

Loading next visibility...
Identifier
1682, 1965-082AV
Orbit
LEO
Country
Flag of USUS
Related business
Manufacturer
Unknown
Mission
Spacecraft
Bus & Motor
Unknown
Mass
Unknown
Launch date (UTC)
1965-10-15 (60 years ago)
Launch vehicle
Unknown
Launch site
Air Force Eastern Test Range (AFETR)
Object type
Payload
Rocket body
Debris
Shape & HBR
Unknown
Radar Cross Section
Medium (>0.1 m² and <1 m²)

Expand to show TLE details & history
Last TLE update: 9 hours ago

TLE from 9 hours ago
0 TITAN 3C TRANSTAGE DEB
1 01682U 65082AV  25261.18666803  .00001692  00000-0  24794-3 0  9999
2 01682  32.4107 191.5847 0048932 184.3342 175.6892 14.73071488150324
Epoch: 2025-09-18T04:28Z
TLE epoch observation values (Epoch: 2025-09-18T04:28:48.117Z)
Latitude
0.00001°
Longitude
127.03235°
Altitude
684.242 km
Speed
7.498 km/s
True Right ascension
12h 46m 20s
True Declination
0° 00' 00"
Sunlit
Object was in daylight at epoch
Visualization orbit readout
Latitude
Unknown
Longitude
Unknown
Altitude
Unknown
Speed
Unknown
Apparent Right ascension
Unknown
Apparent Declination
Unknown
Sunlit
N/A
Visualization observer readout
Local Sidereal Time
06:01:03
Azimuth
Unknown
Elevation
Unknown
Doppler factor
Unknown
Orbital elements
Apogee altitude
689.265 km
Perigee altitude
620.437 km
Semi-major axis
7,032.988 km
Eccentricity
0.00489
Inclination
32.4107°
RAAN
191.5847°
Arg. of periapsis
184.3342°
True anomaly
175.73109°
Mean anomaly
175.6892°
Eccentric anomaly
175.71017°
Mean motion
3.67988 °/min
Orbital period
97.83 mins
BSTAR
0.00024794
Loading maneuver chart data...
Computing Atmospheric mass density...

Documentation

Showing up to 5 results
|